Regional Weather Roundup
Issued by NWS Sterling, VA

Home | Current Version | Previous Version | Text Only | Print | Product List | Glossary Off
Versions: 1 2 3 4 5 6 7 8 9 10 11 12 13 14 15 16 17 18 19 20 21 22 23 24 25 26 27 28 29 30 31 32 33 34 35 36 37 38 39 40 41 42 43 44 45 46 47 48 49 50

000
ASUS41 KLWX 160310
RWRLWX

REGIONAL WEATHER ROUNDUP
NATIONAL WEATHER SERVICE BALTIMORE MD/WASHINGTON DC
1100 PM EDT TUE AUG 15 2017

Note: "FAIR" indicates few or no clouds below 12,000 feet
with no significant weather and/or obstructions to visibility.
 TC=TEMPERATURE CELSIUS

 * =Non NWS site. Station does not report precipitation (e.g. rain,
    snow, etc.), thunder, or fog.

DCZ001-MDZ009-015-VAZ040>042-051-053>054-160400-
WASHINGTON METRO

CITY           SKY/WX    TMP DP  RH WIND       PRES   REMARKS
WASHINGTON NAT MOCLDY    77  74  90 E3        29.93R
DULLES         PTCLDY    70  70 100 CALM      29.94R
ANDREWS AFB    CLEAR     73  71  95 CALM      29.92S
FT BELVOIR     PTCLDY    72  72 100 CALM      29.93R
QUANTICO       PTCLDY    75  74  96 NW6       29.94R
COLLEGE PARK*    N/A     71  71  99 CALM      29.92S VSB 3/4
LEESBURG*      CLEAR     70  70 100 CALM      29.95S FOG
MANASSAS*      CLEAR     70  70 100 CALM      29.94R FOG
GAITHERSBURG*  FOG       68  68 100 CALM      29.95S VSB 1

$$

MDZ006>007-011-014-160400-
BALTIMORE METRO

CITY           SKY/WX    TMP DP  RH WIND       PRES   REMARKS
BWI AIRPORT    PTCLDY    72  72 100 CALM      29.92S
MD SCIENCE CTR   N/A     76  72  87 MISG      29.92R
MARTIN STATE   PTCLDY    72  72 100 CALM      29.93S
ANNAPOLIS      CLEAR     77  77 100 CALM      29.91S
FORT MEADE*    MOCLDY    68  68 100 CALM      29.95S VSB 1

$$

MDZ012-015-019>023-160400-
MARYLAND EASTERN SHORE

CITY           SKY/WX    TMP DP  RH WIND       PRES   REMARKS
OCEAN CITY     PTCLDY    75  74  96 CALM      29.91S FOG
SALISBURY      FOG       76  76 100 CALM      29.90S VSB 1
BAY BRIDGE AP* CLEAR     73  72  94 CALM      29.91S
CAMBRIDGE*     MOCLDY    75  73  94 CALM      29.91R
EASTON*        CLEAR     75  73  93 NE3       29.95R

$$

MDZ017>025-160400-
SOUTHERN MARYLAND

CITY           SKY/WX    TMP DP  RH WIND       PRES   REMARKS
PATUXENT RIVER MOCLDY    76  75  97 N3        29.91R
ST INIGOES     MOCLDY    75  74  96 CALM      29.91R FOG
LEONARDTOWN*   CLEAR     73  72  94 CALM      29.93S

$$

MDZ003>005-160400-
NORTH CENTRAL MARYLAND

CITY           SKY/WX    TMP DP  RH WIND       PRES   REMARKS
FREDERICK*     MOCLDY    70  70 100 CALM      29.96S FOG
HAGERSTOWN APT CLEAR     74  70  87 CALM      29.95R
WESTMINSTER*   CLEAR     72  70  94 CALM      29.95S FOG

$$

MDZ501>502-160400-
WESTERN MARYLAND

CITY           SKY/WX    TMP DP  RH WIND       PRES   REMARKS
OAKLAND*       CLEAR     64  63  94 CALM      30.04S
CUMBERLAND*    PTCLDY    72  72 100 CALM      30.00R

$$

VAZ025>031-160400-
SHENANDOAH VALLEY

CITY           SKY/WX    TMP DP  RH WIND       PRES   REMARKS
WINCHESTER*    FOG       68  68 100 CALM      29.96R VSB 1/4
FRONT ROYAL*   PTCLDY    70  70 100 CALM      29.95S
LURAY*         CLEAR     70  70 100 CALM      29.97R
NEW MARKET*    MOCLDY    69  68  96 CALM      29.97R
STAUNTON*      CLOUDY    70  69  96 CALM      30.00R
WAYNESBORO*    MOCLDY    70  70 100 CALM      30.00R

$$

WVZ021-048>050-054>055-160400-
EASTERN WEST VIRGINIA PANHANDLE

CITY           SKY/WX    TMP DP  RH WIND       PRES   REMARKS
MARTINSBURG    CLEAR     69  68  96 SW3       29.94R FOG
PETERSBURG*    MOCLDY    73  73  98 CALM      29.98R FOG

$$

VAZ036>039-050-160400-
CENTRAL FOOTHILLS

CITY           SKY/WX    TMP DP  RH WIND       PRES   REMARKS
CHARLOTTESVILL CLOUDY    75  74  96 CALM      29.95S
CULPEPER*      FOG       71  71 100 CALM      29.95S VSB 1
ORANGE*        PTCLDY    70  70 100 CALM      29.94S FOG
GORDONSVILLE*  CLEAR     72  72 100 CALM      29.94F FOG
WARRENTON*     FOG       69  66  91 CALM      29.94R VSB 1/4

$$

VAZ055>057-160400-
NORTH AND CENTRAL PIEDMONT

CITY           SKY/WX    TMP DP  RH WIND       PRES   REMARKS
FREDERICKSBRG* CLEAR     74  74 100 CALM      29.93R
STAFFORD*      CLEAR     71  71 100 CALM      29.97S FOG

$$

NCZ024-NYZ072-PAZ021-071-VAZ022-071-160400-
OTHER REGIONAL OBSERVATIONS

CITY           SKY/WX    TMP DP  RH WIND       PRES   REMARKS
NEW YORK CITY  CLOUDY    73  70  90 CALM      29.94S
PHILADELPHIA   PTCLDY    74  71  91 N5        29.91S
PITTSBURGH     CLOUDY    75  68  78 NE8       29.98R
ROANOKE        MOCLDY    76  70  82 VRB3      30.01R
RICHMOND       CLOUDY    74  74 100 N5        29.92R
RALEIGH        PTCLDY    78  75  90 CALM      29.93R

$$

ANZ530>537-160400-
MARINE OBSERVATIONS

STATION/POSITION TIME  TEMP    WIND        PRES
                       AIR SEA DIR/SP/G
                 (UTC) (F)     (DEG/KT/KT) (MB)
THOMAS PT LIGHT  0200   76 79   40/  6/  6   N/A
BALT KEY BRIDGE  0248   76      10/  4/  4 1012.9R
COVE POINT       0248   78      10/  4/  7 1013.4R
LEWISETTA        0248   78 81  360/  3/  4 1012.8R
SOLOMONS ISLAND  0248   77 81  350/  5/  7   N/A
PINEY POINT      0236           10/  3/  3   N/A

$$




USA.gov is the U.S. government's official web portal to all federal, state and local government web resources and services.